Time,TemperatureF,DewpointF,PressureIn,WindDirection,WindDirectionDegrees,WindSpeedMPH,WindSpeedGustMPH,Humidity,HourlyPrecipIn,Conditions,Clouds,dailyrainin,SoftwareType,DateUTC
2013-09-14 00:00:00,71.0,66.0,-100.00,SE,128,4.0,-999.0,85,0.00,,,0.23,,2013-09-14 05:00:00,
2013-09-14 00:43:00,71.0,66.0,-100.00,SE,128,4.0,-999.0,85,0.00,,,0.23,,2013-09-14 05:43:00,
2013-09-14 00:52:00,71.0,66.0,-100.00,SE,128,4.0,-999.0,85,0.00,,,0.23,,2013-09-14 05:52:00,
2013-09-14 01:00:00,70.0,62.0,-100.00,ESE,112,8.0,-999.0,75,0.00,,,0.23,,2013-09-14 06:00:00,
2013-09-14 01:42:00,70.0,62.0,-100.00,ESE,112,8.0,-999.0,75,0.00,,,0.23,,2013-09-14 06:42:00,
2013-09-14 01:52:00,70.0,62.0,-100.00,ESE,112,8.0,-999.0,75,0.00,,,0.23,,2013-09-14 06:52:00,
2013-09-14 02:00:00,69.0,59.0,-100.00,ESE,120,5.0,-999.0,71,0.00,,,0.23,,2013-09-14 07:00:00,
2013-09-14 02:42:00,69.0,59.0,-100.00,ESE,120,5.0,-999.0,71,0.00,,,0.23,,2013-09-14 07:42:00,
2013-09-14 02:52:00,69.0,59.0,-100.00,ESE,120,5.0,-999.0,71,0.00,,,0.23,,2013-09-14 07:52:00,
2013-09-14 03:00:00,69.0,57.0,-100.00,East,101,4.0,-999.0,65,0.00,,,0.23,,2013-09-14 08:00:00,
2013-09-14 03:42:00,69.0,57.0,-100.00,East,101,4.0,-999.0,65,0.00,,,0.23,,2013-09-14 08:42:00,
2013-09-14 03:52:00,69.0,57.0,-100.00,East,101,4.0,-999.0,65,0.00,,,0.23,,2013-09-14 08:52:00,
2013-09-14 04:00:00,67.0,56.0,-100.00,ESE,119,3.0,-999.0,68,0.00,,,0.23,,2013-09-14 09:00:00,
2013-09-14 04:43:00,67.0,56.0,-100.00,ESE,119,3.0,-999.0,68,0.00,,,0.23,,2013-09-14 09:43:00,
2013-09-14 04:54:00,67.0,56.0,-100.00,ESE,119,3.0,-999.0,68,0.00,,,0.23,,2013-09-14 09:54:00,
2013-09-14 05:00:00,66.0,56.0,-100.00,ESE,112,3.0,-999.0,70,0.00,,,0.23,,2013-09-14 10:00:00,
2013-09-14 05:42:00,66.0,56.0,-100.00,ESE,112,3.0,-999.0,70,0.00,,,0.23,,2013-09-14 10:42:00,
2013-09-14 05:53:00,66.0,56.0,-100.00,ESE,112,3.0,-999.0,70,0.00,,,0.23,,2013-09-14 10:53:00,
2013-09-14 06:00:00,65.0,55.0,-100.00,SE,126,2.0,-999.0,70,0.00,,,0.23,,2013-09-14 11:00:00,
2013-09-14 06:42:00,65.0,55.0,-100.00,SE,126,2.0,-999.0,70,0.00,,,0.23,,2013-09-14 11:42:00,
2013-09-14 06:52:00,65.0,55.0,-100.00,SE,126,2.0,-999.0,70,0.00,,,0.23,,2013-09-14 11:52:00,
2013-09-14 07:00:00,64.0,55.0,-100.00,SSE,154,2.0,-999.0,72,0.00,,,0.23,,2013-09-14 12:00:00,
2013-09-14 07:42:00,64.0,55.0,-100.00,SSE,154,2.0,-999.0,72,0.00,,,0.23,,2013-09-14 12:42:00,
2013-09-14 07:52:00,64.0,55.0,-100.00,SSE,154,2.0,-999.0,72,0.00,,,0.23,,2013-09-14 12:52:00,
2013-09-14 08:00:00,66.0,55.0,-100.00,ESE,123,5.0,-999.0,68,0.00,,,0.23,,2013-09-14 13:00:00,
2013-09-14 08:42:00,66.0,55.0,-100.00,ESE,123,5.0,-999.0,68,0.00,,,0.23,,2013-09-14 13:42:00,
2013-09-14 08:52:00,66.0,55.0,-100.00,ESE,123,5.0,-999.0,68,0.00,,,0.23,,2013-09-14 13:52:00,
2013-09-14 09:00:00,67.0,55.0,-100.00,SE,124,6.0,-999.0,65,0.00,,,0.23,,2013-09-14 14:00:00,
2013-09-14 09:43:00,67.0,55.0,-100.00,SE,124,6.0,-999.0,65,0.00,,,0.23,,2013-09-14 14:43:00,
2013-09-14 09:52:00,67.0,55.0,-100.00,SE,124,6.0,-999.0,65,0.00,,,0.23,,2013-09-14 14:52:00,
2013-09-14 10:00:00,70.0,56.0,-100.00,ESE,112,8.0,-999.0,61,0.00,,,0.23,,2013-09-14 15:00:00,
2013-09-14 10:44:00,70.0,56.0,-100.00,ESE,112,8.0,-999.0,61,0.00,,,0.23,,2013-09-14 15:44:00,
2013-09-14 10:53:00,70.0,56.0,-100.00,ESE,112,8.0,-999.0,61,0.00,,,0.23,,2013-09-14 15:53:00,
2013-09-14 11:00:00,74.0,55.0,-100.00,ESE,122,10.0,-999.0,51,0.00,,,0.23,,2013-09-14 16:00:00,
2013-09-14 11:44:00,74.0,55.0,-100.00,ESE,122,10.0,-999.0,51,0.00,,,0.23,,2013-09-14 16:44:00,
2013-09-14 11:54:00,74.0,55.0,-100.00,ESE,122,10.0,-999.0,51,0.00,,,0.23,,2013-09-14 16:54:00,
2013-09-14 12:00:00,78.0,55.0,-100.00,SE,136,8.0,-999.0,45,0.00,,,0.23,,2013-09-14 17:00:00,
2013-09-14 12:43:00,78.0,55.0,-100.00,SE,136,8.0,-999.0,45,0.00,,,0.23,,2013-09-14 17:43:00,
2013-09-14 12:54:00,78.0,55.0,-100.00,SE,136,8.0,-999.0,45,0.00,,,0.23,,2013-09-14 17:54:00,
2013-09-14 13:00:00,81.0,55.0,-100.00,SSE,148,7.0,-999.0,42,0.00,,,0.23,,2013-09-14 18:00:00,
2013-09-14 13:43:00,81.0,55.0,-100.00,SSE,148,7.0,-999.0,42,0.00,,,0.23,,2013-09-14 18:43:00,
2013-09-14 13:52:00,81.0,55.0,-100.00,SSE,148,7.0,-999.0,42,0.00,,,0.23,,2013-09-14 18:52:00,
2013-09-14 14:00:00,83.0,56.0,-100.00,SE,142,6.0,-999.0,40,0.00,,,0.23,,2013-09-14 19:00:00,
2013-09-14 14:42:00,83.0,56.0,-100.00,SE,142,6.0,-999.0,40,0.00,,,0.23,,2013-09-14 19:42:00,
2013-09-14 14:52:00,83.0,56.0,-100.00,SE,142,6.0,-999.0,40,0.00,,,0.23,,2013-09-14 19:52:00,
2013-09-14 15:00:00,85.0,55.0,-100.00,ESE,116,3.0,-999.0,36,0.00,,,0.22,,2013-09-14 20:00:00,
2013-09-14 15:42:00,85.0,55.0,-100.00,ESE,116,3.0,-999.0,36,0.00,,,0.22,,2013-09-14 20:42:00,
2013-09-14 15:52:00,85.0,55.0,-100.00,ESE,116,3.0,-999.0,36,0.00,,,0.22,,2013-09-14 20:52:00,
2013-09-14 16:00:00,86.0,55.0,-100.00,ESE,104,3.0,-999.0,35,0.00,,,0.05,,2013-09-14 21:00:00,
2013-09-14 16:44:00,86.0,55.0,-100.00,ESE,104,3.0,-999.0,35,0.00,,,0.05,,2013-09-14 21:44:00,
2013-09-14 16:54:00,86.0,55.0,-100.00,ESE,104,3.0,-999.0,35,0.00,,,0.05,,2013-09-14 21:54:00,
2013-09-14 17:00:00,87.0,57.0,-100.00,SE,140,4.0,-999.0,36,0.00,,,0.04,,2013-09-14 22:00:00,
2013-09-14 17:42:00,87.0,57.0,-100.00,SE,140,4.0,-999.0,36,0.00,,,0.04,,2013-09-14 22:42:00,
2013-09-14 17:53:00,87.0,57.0,-100.00,SE,140,4.0,-999.0,36,0.00,,,0.04,,2013-09-14 22:53:00,
2013-09-14 18:00:00,86.0,57.0,-100.00,SSE,166,8.0,-999.0,37,0.00,,,0.01,,2013-09-14 23:00:00,
2013-09-14 18:42:00,86.0,57.0,-100.00,SSE,166,8.0,-999.0,37,0.00,,,0.01,,2013-09-14 23:42:00,
2013-09-14 18:53:00,86.0,57.0,-100.00,SSE,166,8.0,-999.0,37,0.00,,,0.01,,2013-09-14 23:53:00,
2013-09-14 19:00:00,83.0,58.0,-100.00,SSE,164,6.0,-999.0,42,0.00,,,0.00,,2013-09-15 00:00:00,
2013-09-14 19:42:00,83.0,58.0,-100.00,SSE,164,6.0,-999.0,42,0.00,,,0.00,,2013-09-15 00:42:00,
2013-09-14 19:53:00,83.0,58.0,-100.00,SSE,164,6.0,-999.0,42,0.00,,,0.00,,2013-09-15 00:53:00,
2013-09-14 20:00:00,78.0,57.0,-100.00,SE,140,3.0,-999.0,49,0.00,,,0.00,,2013-09-15 01:00:00,
2013-09-14 20:42:00,78.0,57.0,-100.00,SE,140,3.0,-999.0,49,0.00,,,0.00,,2013-09-15 01:42:00,
2013-09-14 20:52:00,78.0,57.0,-100.00,SE,140,3.0,-999.0,49,0.00,,,0.00,,2013-09-15 01:52:00,
2013-09-14 21:00:00,75.0,57.0,-100.00,SE,133,2.0,-999.0,54,0.00,,,0.00,,2013-09-15 02:00:00,
2013-09-14 21:42:00,75.0,57.0,-100.00,SE,133,2.0,-999.0,54,0.00,,,0.00,,2013-09-15 02:42:00,
2013-09-14 21:52:00,75.0,57.0,-100.00,SE,133,2.0,-999.0,54,0.00,,,0.00,,2013-09-15 02:52:00,
2013-09-14 22:00:00,-999.0,-99.9,-100.00,ESE,121,3.0,-999.0,-999,-99.99,,,-99.99,,2013-09-15 03:00:00,
2013-09-14 22:44:00,73.0,57.0,-100.00,ESE,121,3.0,-999.0,57,0.00,,,0.00,,2013-09-15 03:44:00,
2013-09-14 22:55:00,73.0,57.0,-100.00,ESE,121,3.0,-999.0,57,0.00,,,0.00,,2013-09-15 03:55:00,
2013-09-14 23:00:00,70.0,57.0,-100.00,SSE,153,4.0,-999.0,63,0.00,,,0.00,,2013-09-15 04:00:00,
2013-09-14 23:43:00,70.0,57.0,-100.00,SSE,153,4.0,-999.0,63,0.00,,,0.00,,2013-09-15 04:43:00,
2013-09-14 23:54:00,70.0,57.0,-100.00,SSE,153,4.0,-999.0,63,0.00,,,0.00,,2013-09-15 04:54:00,